Location: Mount Cross
(36.6390°N, 79.4878°W)
Time: 15:58:44
(UTC+00:00)

A-11 Canister half - Visible Passes

Search period start: 31 March 2023 00:00
Search period end: 10 April 2023 00:00
Orbit: 1526 x 1682 km, 47.3° (Epoch: 31 March)

Date Brightness Start Highest point End Pass type
(mag) Time Alt. Az. Time Alt. Az. Time Alt. Az.
31 Mar 9.2 00:57:13 10° WNW 01:07:04 63° NNE 01:13:00 26° E visible
31 Mar 9.3 03:02:44 10° WNW 03:11:18 53° WSW 03:11:18 53° WSW visible
01 Apr 9.3 00:35:28 10° WNW 00:45:18 61° NNE 00:52:35 19° E visible
01 Apr 9.2 02:40:58 10° WNW 02:50:26 57° SW 02:50:53 56° SSW visible
02 Apr 9.4 00:13:41 10° WNW 00:23:32 60° NNE 00:32:13 13° E visible
02 Apr 9.1 02:19:11 10° WNW 02:28:45 60° SW 02:30:31 53° S visible
02 Apr 11.0 04:27:52 10° W 04:28:50 11° W 04:28:50 11° W visible
02 Apr 9.4 23:51:54 10° WNW 00:01:45 58° NNE 00:11:15 10° E visible
03 Apr 9.2 01:57:25 10° WNW 02:07:04 63° SW 02:10:12 44° SSE visible
03 Apr 10.8 04:05:38 10° W 04:08:30 14° WSW 04:08:30 14° WSW visible
04 Apr 9.2 01:35:39 10° WNW 01:45:23 66° SW 01:49:55 35° SSE visible
04 Apr 10.7 03:43:29 10° W 03:48:14 17° WSW 03:48:14 17° WSW visible
05 Apr 9.2 01:13:52 10° WNW 01:23:41 69° SW 01:29:41 26° SE visible
05 Apr 10.6 03:21:24 10° W 03:27:22 18° WSW 03:28:00 18° SW visible
06 Apr 9.2 00:52:06 10° WNW 01:01:59 73° SW 01:09:30 18° SE visible
06 Apr 10.5 02:59:21 10° W 03:05:44 20° SW 03:07:49 18° SW visible
07 Apr 9.2 00:30:21 10° WNW 00:40:17 76° SW 00:49:23 12° SE visible
07 Apr 10.5 02:37:22 10° W 02:44:07 21° SW 02:47:42 17° SSW visible
08 Apr 9.2 00:08:35 10° WNW 00:18:34 79° SW 00:28:11 10° SE visible
08 Apr 10.5 02:15:23 10° WNW 02:22:28 23° SW 02:27:38 15° SSW visible
09 Apr 10.5 01:53:27 10° WNW 02:00:51 25° SW 02:07:38 11° S visible
